Home   Weather   Saint George's   Past weeks

Flag for Grenada Past Weather in Saint George's, Grenada — Yesterday and Last 2 Weeks

Now
82 °F

Passing clouds.


Feels Like: 89 °F
Forecast: 74 / 79 °F
Wind: 18 mph from East

Location: Point Salines Airport

Current Time: Apr 29, 2017 at 7:22:33 am

Latest Report: Apr 29, 2017 at 7:00 am


Visibility: N/A

Pressure: 29.98 "Hg

Humidity: 79%

Dew Point: 75 °F

Location of Saint George'sLocation

Past Weather in Saint George's — Graph

°F

Saint George's Temperature Yesterday

Maximum temperature yesterday: 86 °F (at 11:00 am)
Minimum temperature yesterday: 81 °F (at 12:00 am)
Average temperature yesterday: 83 °F

High & Low Weather Summary for the Past Weeks

 TemperatureHumidityPressure
High88 °F (Apr 27, 11:00 am)94% (Apr 20, 9:00 pm)30.01 "Hg (Apr 20, 9:00 pm)
Low79 °F (Apr 19, 3:00 am)66% (Apr 16, 10:00 am)29.83 "Hg (Apr 20, 5:00 pm)
Average83 °F79%29.91 "Hg
* Reported Apr 14 6:00 am — Apr 29 6:00 am, Saint George's, Weather by CustomWeather, © 2017

Note: Actual official high and low records may vary slightly from our data, if they occured in-between our weather recording intervals... More about our weather records

Advertising

Saint George's Weather History for the Previous 24 Hours

Scroll right to see more
 ConditionsComfort  
Time TempWeatherWind HumidityBarometerVisibility
6:00 am
Sat, Apr 29
81 °FPassing clouds.16 mph84%29.95 "HgN/A
5:00 am81 °FPassing clouds.15 mph84%29.95 "HgN/A
2:00 am81 °FPassing clouds.20 mph84%29.95 "HgN/A
1:00 am81 °FPassing clouds.14 mph84%29.98 "HgN/A
12:00 am82 °FPassing clouds.17 mph79%30.01 "HgN/A
11:00 pm
Fri, Apr 28
82 °FPassing clouds.22 mph79%30.01 "HgN/A
10:00 pm81 °FPassing clouds.17 mph84%30.01 "HgN/A
9:00 pm81 °FPassing clouds.18 mph84%29.98 "HgN/A
8:00 pm81 °FPassing clouds.21 mph84%29.98 "HgN/A
7:00 pm82 °FPassing clouds.17 mph79%29.95 "HgN/A
6:00 pm82 °FScattered clouds.17 mph79%29.92 "HgN/A
5:00 pm84 °FPassing clouds.16 mph79%29.92 "HgN/A
4:00 pm86 °FPassing clouds.17 mph75%29.92 "HgN/A
3:00 pm86 °FPassing clouds.21 mph75%29.92 "HgN/A
2:00 pm86 °FPassing clouds.23 mph75%29.95 "HgN/A
1:00 pm86 °FScattered clouds.23 mph75%29.98 "HgN/A
12:00 pm86 °FScattered clouds.21 mph75%29.98 "HgN/A
11:00 am86 °FPassing clouds.15 mph75%29.98 "HgN/A
10:00 am84 °FPassing clouds.23 mph74%29.98 "HgN/A
9:00 am84 °FPassing clouds.23 mph74%29.98 "HgN/A
8:00 am84 °FPassing clouds.18 mph74%29.98 "HgN/A
7:00 am82 °FPassing clouds.20 mph84%29.95 "HgN/A
Weather by CustomWeather, © 2017

See weather overviewHow to use our weather pages